Regional Weather Roundup
Issued by NWS

Home | Current Version | Previous Version | Text Only | Print | Product List | Glossary Off
Versions: 1 2 3 4 5 6 7 8 9 10 11 12 13 14 15 16 17 18 19 20 21 22 23 24 25 26 27 28 29 30 31 32 33 34 35 36 37 38 39 40 41 42 43 44 45 46 47 48 49 50

000
ASUS43 KTOP 171459
RWRKS

WEATHER ROUNDUP FOR KANSAS
NATIONAL WEATHER SERVICE GOODLAND KS
1000 AM CDT THU AUG 17 2017

NOTE:  "FAIR" INDICATES FEW OR NO CLOUDS BELOW 12,000 FEET WITH NO
SIGNIFICANT WEATHER AND/OR OBSTRUCTIONS TO VISIBILITY.

KSZ001>006-013>018-027>032-041>047-171600-
NORTHWEST KANSAS

CITY           SKY/WX    TMP DP  RH WIND       PRES   REMARKS
GOODLAND       MOSUNNY   71  59  65 SW12      30.13S
HAYS           SUNNY     72  63  73 NW10      30.08S
HILL CITY      SUNNY     72  63  73 W9        30.09S
RUSSELL        SUNNY     73  59  61 NW8       30.06R
$$

KSZ061>065-074>080-084>089-171600-
SOUTHWEST KANSAS

CITY           SKY/WX    TMP DP  RH WIND       PRES   REMARKS
DODGE CITY     CLOUDY    72  59  63 NW6       30.11S
ELKHART          N/A     70  63  79 E5          N/A
GARDEN CITY    CLOUDY    66  62  87 NW6       30.14R
GREAT BEND     SUNNY     73  62  68 NW9       30.07R
LIBERAL        SUNNY     72  60  66 NE5       30.15
$$

KSZ066>073-081>083-090>101-171600-
SOUTHEAST KANSAS

CITY           SKY/WX    TMP DP  RH WIND       PRES   REMARKS
CHANUTE        CLOUDY    73  67  81 MISG      30.01R
COFFEYVILLE    CLOUDY    74  69  85 N8        30.00R
HUTCHINSON     SUNNY     76  63  64 NW7       30.04R
MEDICINE LODGE   N/A     75  62  64 NW3       30.06R
NEWTON         SUNNY     73  63  70 NW8       30.05R
PARSONS        CLOUDY    73  68  84 N8        30.02R
WICHITA INTL   MOSUNNY   76  63  64 NW7       30.04R
WICHITA JABRA  SUNNY     74  65  73 NW7       30.04R
WINFIELD       SUNNY     74  66  76 CALM      30.05R
$$

KSZ007>012-019>026-033>040-048>060-102>105-171600-
NORTHEAST KANSAS

CITY           SKY/WX    TMP DP  RH WIND       PRES   REMARKS
CONCORDIA      SUNNY     70  64  81 W9        30.02R
EMPORIA        SUNNY     73  64  73 N8        30.02R
LAWRENCE       SUNNY     73  66  78 W10       29.98R
MANHATTAN      SUNNY     74  64  71 VRB5      29.99S
OLATHE IND     CLOUDY    73  66  78 W13       29.98R
OLATHE EXE     CLOUDY    72  66  81 W8        29.97R
SALINA         SUNNY     75  61  61 NW13      30.03R
TOPEKA BILLARD SUNNY     73  66  78 W9        29.98R
TOPEKA FORBES  SUNNY     74  65  73 NW10      29.99R
$$




USA.gov is the U.S. government's official web portal to all federal, state and local government web resources and services.